sat.trackr.live / text

‹ back to catalog

KANOPUS-V 5

NORAD 43876 · 2018-111A

PAYLOAD ACTIVE UNKNOWN

§ Identity

Operator
Country
CIS
Launch date
2018-12-27
Launch site
VOSTO
Launch vehicle
Mass (kg)
RCS (m²)

External: N2YO · Heavens-Above · Gunter

§ Orbital elements

Epoch: 2026-05-25T04:43:19.866144Z

Period
94.56 min
Inclination
97.3597°
Eccentricity
0.0001935
Mean motion
15.22854297 rev/d
Perigee alt
495.9 km
Apogee alt
498.6 km
Semi-major
6,875.4 km
B*
9.1523e-5
RAAN
51.1716°
Arg perigee
80.7775°
Mean anomaly
279.3681°
Rev number
41,128

§ Raw data

KANOPUS-V 51 43876U 18111A   26145.19675771  .00002073  00000+0  91523-4 0  99962 43876  97.3597  51.1716 0001935  80.7775 279.3681 15.22854297411280

JSON: /api/v1/satellites/43876 · /tle

For live sub-satellite position, see the globe view (requires WebGL).

§ Visibility from observer

Set your observer location to see the next 7 days of passes ≥ 10°. The values pass through the URL so the page stays shareable.

No JS? Fill the form by hand. The geolocation button needs JavaScript.